Flag for Mozambique Weather past 2 weeks in Maputo, Mozambique

Now
72 °F

Scattered clouds.


Feels Like: 75 °F
Forecast: 64 / 80 °F
Wind: 5 mph from Southwest

Location: Maputo / Mavalane

Current Time: Oct 23, 2014 at 9:07:51 AM

Latest Report: Oct 23, 2014 at 8:00 AM


Visibility: N/A

Pressure: 30.12 "Hg

Humidity: 69%

Dew point: 61 °F

Location of MaputoLocation

Historic Weather in Maputo — Graph

°F

Maputo temperature yesterday

Maximum temperature yesterday: 75 °F (at 11:00 AM)
Minimum temperature yesterday: 66 °F (at 9:00 PM)
Average temperature yesterday: 70 °F

Past Weeks' High & Low Weather Summary

 TemperatureHumidityPressure
High88 °F (Oct 8, 11:00 AM)100% (Oct 10, 11:00 PM)30.30 "Hg (Oct 10, 11:00 PM)
Low59 °F (Oct 19, 5:00 AM)27% (Oct 8, 11:00 AM)29.59 "Hg (Oct 16, 8:00 PM)
Average72 °F69%30.02 "Hg
* Reported Oct 8 8:00 AM — Oct 23 8:00 AM, Maputo, Weather by CustomWeather, © 2014

Note: Actual official high and low records may vary slightly from our data, if they occured in-between our weather recording intervals... More about our weather records

Advertising

Maputo weather history for previous 24 hours

 ConditionsComfort  
Time TempWeatherWind HumidityBarometerVisibility
8:00 AM
Oct 23
72 °FScattered clouds.5 mph69%30.12 "HgN/A
6:00 AM64 °FPassing clouds.3 mph94%30.09 "HgN/A
5:00 AM64 °FPartly sunny.6 mph94%30.09 "HgN/A
4:00 AM64 °FPassing clouds.7 mph94%30.09 "HgN/A
3:00 AM66 °FPassing clouds.8 mph88%30.12 "HgN/A
2:00 AM64 °FPassing clouds.6 mph94%30.12 "HgN/A
1:00 AM66 °FPassing clouds.6 mph88%30.15 "HgN/A
12:00 AM66 °FPassing clouds.5 mph88%30.18 "HgN/A
11:00 PM
Oct 22
66 °FPassing clouds.13 mph83%30.18 "HgN/A
9:00 PM66 °FPassing clouds.9 mph88%30.18 "HgN/A
8:00 PM70 °FPassing clouds.6 mph73%30.18 "HgN/A
7:00 PM70 °FPassing clouds.7 mph83%30.18 "HgN/A
6:00 PM72 °FPassing clouds.5 mph65%30.15 "HgN/A
5:00 PM73 °FPassing clouds.7 mph61%30.15 "HgN/A
4:00 PM72 °FBroken clouds.3 mph61%30.15 "HgN/A
3:00 PM73 °FPartly sunny.6 mph61%30.18 "HgN/A
2:00 PM75 °FPartly sunny.5 mph61%30.18 "HgN/A
1:00 PM75 °FPartly sunny.5 mph61%30.18 "HgN/A
12:00 PM72 °FPartly sunny.7 mph73%30.21 "HgN/A
11:00 AM75 °FPartly sunny.2 mph57%30.21 "HgN/A
10:00 AM72 °FBroken clouds.3 mph73%30.24 "HgN/A
Weather by CustomWeather, © 2014

See weather overviewHow to use our weather pages